Orbital Elements at Epoch 2459000.5 (2020-May-31.0) TDB
Reference: JPL 30 (heliocentric ecliptic J2000)
Element | Value | Uncertainty (1-sigma) | Units |
e | .1190716246689864 | 4.3174e-08 | |
a | 3.197190172527682 | 1.74e-08 | au |
q | 2.816495544309094 | 1.4362e-07 | au |
i | 1.891835238702838 | 4.548e-06 | deg |
node | 159.1457003565473 | 0.00011634 | deg |
peri | 76.18528443096719 | 0.00011775 | deg |
M | 340.3591648350289 | 1.8201e-05 | deg |
tp | 2459114.422257131766 (2020-Sep-21.92225713) | 0.00010558 | TDB |
period | 2088.099218946626 5.72 | 1.7046e-05 4.667e-08 | d yr |
n | .1724056006216062 | 1.4074e-09 | deg/d |
Q | 3.577884800746271 | 1.9472e-08 | au |
|
| | Orbit Determination Parameters
Additional Information
|